{"data":{"norad_id":56904,"intl_designator":"2023-083AE","name":"STARLINK-6193","alt_names":[],"object_type":"PAYLOAD","status":"ACTIVE","operator":null,"country":"US","launch_date":"2023-06-12","launch_site_code":"AFETR","launch_vehicle":null,"mission":null,"orbit_class":"UNKNOWN","rcs_meters":null,"size_class":null,"mass_kg":null,"dimensions":null,"purposes":["comms"],"wikipedia_slug":null,"has_3d_model":false,"image_url":null,"decayed_at":null,"tle_current":{"epoch":"2026-05-24T21:47:35.666880Z","epoch_age_seconds":79520,"freshness":"FRESH","line1":"1 56904U 23083AE  26144.90805170  .00000484  00000+0  27129-4 0  9997","line2":"2 56904  43.0057   0.3346 0001286 264.3529  95.7176 15.27582405163452","mean_motion":15.27582405,"eccentricity":0.0001286,"inclination_deg":43.0057,"raan_deg":0.3346,"arg_perigee_deg":264.3529,"mean_anomaly_deg":95.7176,"bstar":2.7129e-5,"rev_number":16345,"period_min":94.266600301671,"perigee_km":482.15954700806,"apogee_km":483.92424221975,"semimajor_km":6861.1788946139,"source":"CELESTRAK","updated_at":"2026-05-25T13:38:18.201666Z"}}}